Cloud_Cover
12 0 13 100 100 100 100 100 100 100 100 100 97 100 92 12 1 0 0 0 2 45 100 99 100 62 95 100 100 100 99 100 100 100 100 52 71 100 92 42 65 78 85
48 68 99 100 100 100 100 100 100 100 100 100 100 92 100 85 0 0 0 0 0 45 100 100 100 94 16 98 100 100 100 100 100 100 100 100 100 13 62 89 100 100 72
100 100 100 100 100 100 100 100 100 100 100 100 100 100 61 28 0 0 3 0 0 0 37 57 95 97 72 100 100 100 100 100 100 100 100 100 78 59 97 98 100 99 100
100 100 100 100 100 100 100 100 100 100 100 100 100 100 100 5 7 4 33 0 0 2 2 2 87 95 100 86 97 100 100 100 100 100 100 100 100 100 100 100 100 100 93
100 100 100 100 100 100 100 100 100 100 100 100 100 100 100 26 10 19 5 0 4 4 0 4 26 90 83 100 97 97 94 100 100 100 100 100 92 64 44 91 100 100 100
100 100 100 100 100 100 100 100 100 100 100 100 100 100 100 98 5 3 4 0 5 5 5 5 5 25 46 100 100 100 100 8 8 49 9 27 5 13 7 99 100 100 100
100 100 100 100 100 100 100 100 100 100 100 100 100 100 100 100 99 16 5 3 8 5 21 5 60 59 4 2 40 0 4 0 0 5 12 7 17 5 12 100 100 100 100
100 100 100 100 100 100 100 100 100 100 100 100 100 100 100 100 100 89 29 6 44 13 37 12 65 40 16 17 98 67 6 2 0 3 5 4 5 4 7 12 90 100 99
100 100 100 100 100 100 100 100 100 100 100 100 100 100 100 100 100 100 100 100 96 32 5 16 27 20 100 93 98 98 100 100 100 92 49 5 4 5 7 85 100 100 100
92 100 100 100 100 100 100 100 100 100 100 100 100 100 100 99 100 100 100 100 100 86 51 5 5 5 16 6 51 16 64 90 97 100 100 100 100 100 54 78 44 99 100
29 97 100 100 100 100 100 100 100 100 100 100 100 100 100 100 100 100 100 100 100 100 93 44 30 14 6 72 95 61 11 17 18 18 96 100 100 100 97 93 100 98 100
36 100 85 100 100 100 100 100 100 61 100 100 100 100 91 90 87 98 99 97 100 100 56 51 69 88 45 16 56 100 99 100 100 70 45 100 100 100 100 100 100 94 100
49 69 100 92 100 100 100 100 100 87 21 43 99 100 98 99 36 61 92 41 63 72 100 94 92 53 38 39 100 76 100 24 100 99 14 6 12 45 93 100 100 100 100
8 17 66 100 60 100 100 100 100 100 100 91 95 100 100 99 97 100 12 24 88 99 100 100 100 62 97 100 100 99 74 42 72 100 100 100 88 100 100 100 100 100 100
5 14 38 30 67 6 46 100 99 100 100 100 100 100 100 100 80 76 88 80 71 79 97 100 100 100 99 27 83 71 90 97 95 92 46 81 100 100 100 100 100 100 98
71 86 39 56 100 48 61 70 90 96 100 100 100 100 99 98 40 99 100 100 100 100 95 83 91 100 73 6 23 48 73 78 17 100 99 100 100 100 100 100 100 100 100
0 11 46 100 100 100 88 93 100 100 98 100 100 100 100 100 100 100 100 100 100 100 100 98 71 35 5 11 31 47 41 87 96 100 100 100 100 100 100 100 100 100 100
4 0 35 35 92 100 100 100 100 86 97 100 100 100 100 100 100 99 100 100 100 100 100 100 98 90 89 86 81 95 100 91 80 100 100 100 100 100 100 100 100 100 100
0 3 1 2 5 74 99 100 100 100 91 94 38 100 100 100 100 100 100 100 100 100 100 100 100 100 100 100 94 90 100 96 100 100 100 100 100 100 100 100 100 100 100
0 0 0 0 1 11 10 100 100 94 100 100 75 58 99 87 100 100 100 100 100 100 100 100 100 100 100 100 100 100 100 100 100 100 100 100 100 100 100 100 100 100 100
2 5 43 5 98 84 100 7 24 46 0 2 9 26 96 17 100 100 100 100 100 100 98 100 100 100 100 99 100 100 100 100 100 100 100 100 100 100 100 100 100 100 100
99 76 59 70 20 6 0 74 68 1 18 3 100 80 76 6 81 97 100 100 100 100 100 100 100 100 100 100 100 100 100 100 100 100 100 100 100 100 100 100 100 100 100
100 100 100 94 54 83 64 9 45 50 9 14 28 27 54 99 96 100 100 100 100 100 90 100 100 100 100 100 100 100 100 100 100 100 100 100 100 100 100 100 100 100 100
100 100 62 9 5 29 11 11 74 17 40 90 92 51 74 83 66 100 100 100 100 100 100 100 100 100 100 100 100 100 100 100 100 100 100 100 100 100 100 100 100 100 100
30 70 1 14 0 88 14 0 0 24 87 54 99 88 100 84 92 100 100 73 100 100 100 100 100 99 100 100 100 100 100 100 100 100 100 100 100 100 100 100 100 100 100
34 100 48 72 0 0 43 56 15 0 0 7 40 73 86 100 73 86 100 100 100 88 94 100 100 100 100 99 100 100 100 100 100 100 100 100 100 100 100 100 100 100 100